| time (UTC) | temp F | wind direction | speed MPH | gust MPH | rain 1hr in | rain 24hr in | rain mn in | humidity % | barometer mb |
| 20260502161943 | 56 | 226 | 0.0 | 1.0 | 0.00 | 0.00 | 0.00 | 50 | 1021.6 |
| 20260502161441 | 55 | 4 | 0.0 | 1.0 | 0.00 | 0.00 | 0.00 | 49 | 1021.7 |
| 20260502160940 | 55 | 4 | 0.0 | 0.0 | 0.00 | 0.00 | 0.00 | 50 | 1021.7 |
| 20260502160439 | 55 | 4 | 0.0 | 7.0 | 0.00 | 0.00 | 0.00 | 50 | 1021.8 |
| 20260502151930 | 54 | 75 | 0.0 | 4.0 | 0.00 | 0.00 | 0.00 | 58 | 1021.5 |
| 20260502151429 | 54 | 4 | 0.0 | 7.0 | 0.00 | 0.00 | 0.00 | 57 | 1021.7 |
| 20260502150928 | 53 | 63 | 1.0 | 5.0 | 0.00 | 0.00 | 0.00 | 59 | 1021.7 |
| 20260502150427 | 53 | 45 | 3.0 | 9.0 | 0.00 | 0.00 | 0.00 | 58 | 1021.8 |
| 20260502130403 | 44 | 333 | 0.0 | 0.0 | 0.00 | 0.00 | 0.00 | 73 | 1021.1 |
| 20260502123357 | 43 | 327 | 0.0 | 2.0 | 0.00 | 0.00 | 0.00 | 75 | 1020.9 |
| 20260502122856 | 43 | 9 | 0.0 | 0.0 | 0.00 | 0.00 | 0.00 | 75 | 1020.8 |
| 20260502122355 | 43 | 9 | 0.0 | 0.0 | 0.00 | 0.00 | 0.00 | 75 | 1020.8 |
| 20260502121854 | 43 | 9 | 0.0 | 0.0 | 0.00 | 0.00 | 0.00 | 75 | 1020.6 |
| 20260502121353 | 42 | 9 | 0.0 | 0.0 | 0.00 | 0.00 | 0.00 | 75 | 1020.6 |
| 20260502120852 | 42 | 9 | 0.0 | 0.0 | 0.00 | 0.00 | 0.00 | 76 | 1020.5 |
| 20260502120351 | 42 | 9 | 0.0 | 0.0 | 0.00 | 0.00 | 0.00 | 75 | 1020.5 |
| 20260502115850 | 42 | 9 | 0.0 | 1.0 | 0.00 | 0.00 | 0.00 | 75 | 1020.4 |
| 20260502115349 | 42 | 9 | 0.0 | 0.0 | 0.00 | 0.00 | 0.00 | 75 | 1020.3 |
| 20260502114848 | 42 | 9 | 0.0 | 0.0 | 0.00 | 0.00 | 0.00 | 75 | 1020.2 |
| 20260502114347 | 42 | 9 | 0.0 | 0.0 | 0.00 | 0.00 | 0.00 | 75 | 1020.2 |
| 20260502113846 | 42 | 9 | 0.0 | 0.0 | 0.00 | 0.00 | 0.00 | 75 | 1020.1 |
| 20260502113345 | 42 | 9 | 0.0 | 0.0 | 0.00 | 0.00 | 0.00 | 75 | 1020.1 |
| 20260502112844 | 42 | 9 | 0.0 | 0.0 | 0.00 | 0.00 | 0.00 | 75 | 1020.0 |
| 20260502112343 | 42 | 9 | 0.0 | 0.0 | 0.00 | 0.00 | 0.00 | 75 | 1020.0 |
| 20260502111842 | 42 | 9 | 0.0 | 0.0 | 0.00 | 0.00 | 0.00 | 74 | 1019.9 |
| 20260502111341 | 42 | 9 | 0.0 | 0.0 | 0.00 | 0.00 | 0.00 | 74 | 1019.9 |
| 20260502110840 | 42 | 9 | 0.0 | 0.0 | 0.00 | 0.00 | 0.00 | 73 | 1020.0 |
| 20260502110339 | 42 | 9 | 0.0 | 0.0 | 0.00 | 0.00 | 0.00 | 73 | 1019.9 |
| 20260502105838 | 42 | 9 | 0.0 | 0.0 | 0.00 | 0.00 | 0.00 | 73 | 1019.9 |
| 20260502105337 | 42 | 9 | 0.0 | 0.0 | 0.00 | 0.00 | 0.00 | 73 | 1019.9 |
| 20260502104836 | 42 | 9 | 0.0 | 0.0 | 0.00 | 0.00 | 0.00 | 72 | 1019.9 |
| 20260502104335 | 42 | 9 | 0.0 | 0.0 | 0.00 | 0.00 | 0.00 | 72 | 1020.0 |
| 20260502103834 | 42 | 9 | 0.0 | 0.0 | 0.00 | 0.00 | 0.00 | 72 | 1019.9 |
| 20260502103333 | 42 | 9 | 0.0 | 0.0 | 0.00 | 0.00 | 0.00 | 71 | 1019.8 |
| 20260502102832 | 42 | 9 | 0.0 | 0.0 | 0.00 | 0.00 | 0.00 | 72 | 1019.8 |
| 20260502102331 | 42 | 9 | 0.0 | 0.0 | 0.00 | 0.00 | 0.00 | 72 | 1019.8 |
| 20260502101830 | 43 | 9 | 0.0 | 0.0 | 0.00 | 0.00 | 0.00 | 72 | 1019.8 |
| 20260502101329 | 43 | 9 | 0.0 | 0.0 | 0.00 | 0.00 | 0.00 | 72 | 1019.6 |
| 20260502100828 | 43 | 9 | 0.0 | 0.0 | 0.00 | 0.00 | 0.00 | 72 | 1019.6 |
| 20260502100327 | 43 | 9 | 0.0 | 0.0 | 0.00 | 0.00 | 0.00 | 69 | 1019.6 |
| 20260502091317 | 44 | 9 | 0.0 | 0.0 | 0.00 | 0.00 | 0.00 | 67 | 1019.3 |
| 20260502090816 | 44 | 9 | 0.0 | 0.0 | 0.00 | 0.00 | 0.00 | 67 | 1019.3 |
| 20260502090315 | 44 | 9 | 0.0 | 0.0 | 0.00 | 0.00 | 0.00 | 66 | 1019.3 |
| 20260502071253 | 46 | 360 | 0.0 | 3.0 | 0.00 | 0.00 | 0.00 | 60 | 1019.1 |
| 20260502070752 | 46 | 9 | 0.0 | 0.0 | 0.00 | 0.00 | 0.00 | 61 | 1019.1 |
| 20260502070251 | 47 | 9 | 0.0 | 0.0 | 0.00 | 0.00 | 0.00 | 61 | 1019.1 |
| 20260502065750 | 47 | 9 | 0.0 | 0.0 | 0.00 | 0.00 | 0.00 | 61 | 1019.2 |
| 20260502065249 | 47 | 9 | 0.0 | 0.0 | 0.00 | 0.00 | 0.00 | 61 | 1019.1 |
| 20260502064748 | 47 | 9 | 0.0 | 0.0 | 0.00 | 0.00 | 0.00 | 61 | 1019.1 |
| 20260502064247 | 47 | 9 | 0.0 | 0.0 | 0.00 | 0.00 | 0.00 | 60 | 1019.1 |
| 20260502063746 | 47 | 9 | 0.0 | 0.0 | 0.00 | 0.00 | 0.00 | 60 | 1019.1 |
| 20260502063245 | 47 | 9 | 0.0 | 0.0 | 0.00 | 0.00 | 0.00 | 60 | 1019.2 |
| 20260502062744 | 47 | 9 | 0.0 | 0.0 | 0.00 | 0.00 | 0.00 | 60 | 1019.2 |
| 20260502062243 | 47 | 9 | 0.0 | 0.0 | 0.00 | 0.00 | 0.00 | 59 | 1019.1 |
| 20260502061742 | 47 | 9 | 0.0 | 0.0 | 0.00 | 0.00 | 0.00 | 60 | 1019.2 |
| 20260502061241 | 48 | 9 | 0.0 | 0.0 | 0.00 | 0.00 | 0.00 | 59 | 1019.2 |
| 20260502060740 | 48 | 9 | 0.0 | 0.0 | 0.00 | 0.00 | 0.00 | 58 | 1019.2 |
| 20260502060239 | 48 | 9 | 0.0 | 0.0 | 0.00 | 0.00 | 0.00 | 59 | 1019.2 |
| 20260502055738 | 48 | 9 | 0.0 | 0.0 | 0.00 | 0.00 | 0.00 | 60 | 1019.2 |
| 20260502055237 | 48 | 9 | 0.0 | 0.0 | 0.00 | 0.00 | 0.00 | 60 | 1019.2 |
| 20260502054736 | 48 | 9 | 0.0 | 0.0 | 0.00 | 0.00 | 0.00 | 60 | 1019.2 |
| 20260502054235 | 48 | 9 | 0.0 | 0.0 | 0.00 | 0.00 | 0.00 | 59 | 1019.2 |
| 20260502053734 | 48 | 9 | 0.0 | 1.0 | 0.00 | 0.00 | 0.00 | 59 | 1019.2 |
| 20260502053233 | 48 | 358 | 0.0 | 0.0 | 0.00 | 0.00 | 0.00 | 60 | 1019.1 |
| 20260502052732 | 49 | 358 | 0.0 | 3.0 | 0.00 | 0.00 | 0.00 | 59 | 1019.2 |
| 20260502052231 | 49 | 357 | 0.0 | 4.0 | 0.00 | 0.00 | 0.00 | 58 | 1019.1 |
| 20260502051730 | 49 | 7 | 0.0 | 2.0 | 0.00 | 0.00 | 0.00 | 59 | 1019.2 |
| 20260502051229 | 49 | 1 | 0.0 | 0.0 | 0.00 | 0.00 | 0.00 | 59 | 1019.1 |
| 20260502050728 | 49 | 1 | 0.0 | 6.0 | 0.00 | 0.00 | 0.00 | 55 | 1019.1 |
| 20260502050227 | 50 | 28 | 0.0 | 0.0 | 0.00 | 0.00 | 0.00 | 60 | 1019.2 |
| 20260502045726 | 49 | 28 | 0.0 | 0.0 | 0.00 | 0.00 | 0.00 | 51 | 1019.1 |
| 20260502045225 | 49 | 28 | 0.0 | 0.0 | 0.00 | 0.00 | 0.00 | 52 | 1019.1 |
| 20260502044724 | 50 | 28 | 0.0 | 0.0 | 0.00 | 0.00 | 0.00 | 57 | 1019.1 |
| 20260502044223 | 50 | 28 | 0.0 | 0.0 | 0.00 | 0.00 | 0.00 | 57 | 1019.0 |
| 20260502043722 | 51 | 28 | 0.0 | 2.0 | 0.00 | 0.00 | 0.00 | 57 | 1019.0 |
| 20260502043221 | 51 | 355 | 0.0 | 5.0 | 0.00 | 0.00 | 0.00 | 57 | 1019.0 |
| 20260502042720 | 51 | 12 | 0.0 | 3.0 | 0.00 | 0.00 | 0.00 | 56 | 1018.9 |
| 20260502042219 | 51 | 22 | 0.0 | 4.0 | 0.00 | 0.00 | 0.00 | 56 | 1018.9 |
| 20260502041718 | 51 | 354 | 0.0 | 0.0 | 0.00 | 0.00 | 0.00 | 57 | 1019.0 |
| 20260502041217 | 51 | 354 | 0.0 | 0.0 | 0.00 | 0.00 | 0.00 | 57 | 1018.9 |
| 20260502040716 | 52 | 354 | 0.0 | 0.0 | 0.00 | 0.00 | 0.00 | 56 | 1018.8 |
| 20260502040215 | 52 | 354 | 0.0 | 0.0 | 0.00 | 0.00 | 0.00 | 56 | 1018.8 |
| 20260502035714 | 52 | 354 | 0.0 | 0.0 | 0.00 | 0.00 | 0.00 | 55 | 1018.8 |
| 20260502035213 | 52 | 354 | 0.0 | 0.0 | 0.00 | 0.00 | 0.00 | 56 | 1018.7 |
| 20260502034712 | 52 | 354 | 0.0 | 0.0 | 0.00 | 0.00 | 0.00 | 55 | 1018.7 |
| 20260502034211 | 53 | 354 | 0.0 | 0.0 | 0.00 | 0.00 | 0.00 | 55 | 1018.7 |
| 20260502033710 | 53 | 354 | 0.0 | 0.0 | 0.00 | 0.00 | 0.00 | 54 | 1018.6 |
| 20260502033209 | 53 | 354 | 0.0 | 0.0 | 0.00 | 0.00 | 0.00 | 54 | 1018.6 |
| 20260502032708 | 53 | 354 | 0.0 | 0.0 | 0.00 | 0.00 | 0.00 | 54 | 1018.6 |
| 20260502032207 | 53 | 354 | 0.0 | 0.0 | 0.00 | 0.00 | 0.00 | 54 | 1018.5 |
| 20260502031706 | 53 | 354 | 0.0 | 0.0 | 0.00 | 0.00 | 0.00 | 54 | 1018.4 |
| 20260502031205 | 53 | 354 | 0.0 | 0.0 | 0.00 | 0.00 | 0.00 | 53 | 1018.4 |
| 20260502030704 | 53 | 354 | 0.0 | 0.0 | 0.00 | 0.00 | 0.00 | 54 | 1018.4 |
| 20260502030203 | 54 | 354 | 0.0 | 0.0 | 0.00 | 0.00 | 0.00 | 54 | 1018.3 |
| 20260502025702 | 54 | 354 | 0.0 | 0.0 | 0.00 | 0.00 | 0.00 | 54 | 1018.2 |
| 20260502025201 | 54 | 354 | 0.0 | 0.0 | 0.00 | 0.00 | 0.00 | 53 | 1018.1 |
| 20260502024700 | 54 | 354 | 0.0 | 0.0 | 0.00 | 0.00 | 0.00 | 52 | 1018.0 |
| 20260502024159 | 55 | 354 | 0.0 | 0.0 | 0.00 | 0.00 | 0.00 | 51 | 1018.0 |
| 20260502023658 | 55 | 354 | 0.0 | 1.0 | 0.00 | 0.00 | 0.00 | 53 | 1017.8 |
| 20260502023157 | 55 | 354 | 1.0 | 4.0 | 0.00 | 0.00 | 0.00 | 52 | 1017.7 |
| 20260502022656 | 55 | 37 | 0.0 | 0.0 | 0.00 | 0.00 | 0.00 | 52 | 1017.7 |
| 20260502022155 | 55 | 37 | 0.0 | 0.0 | 0.00 | 0.00 | 0.00 | 51 | 1017.5 |
| 20260502021654 | 55 | 37 | 0.0 | 0.0 | 0.00 | 0.00 | 0.00 | 51 | 1017.5 |
| 20260502021153 | 55 | 37 | 0.0 | 0.0 | 0.00 | 0.00 | 0.00 | 51 | 1017.4 |
| 20260502020652 | 55 | 37 | 0.0 | 0.0 | 0.00 | 0.00 | 0.00 | 51 | 1017.3 |
| 20260502020151 | 56 | 37 | 0.0 | 0.0 | 0.00 | 0.00 | 0.00 | 51 | 1017.3 |
| 20260502015650 | 56 | 37 | 0.0 | 0.0 | 0.00 | 0.00 | 0.00 | 51 | 1017.2 |
| 20260502015149 | 56 | 37 | 0.0 | 0.0 | 0.00 | 0.00 | 0.00 | 52 | 1017.2 |
| 20260502014648 | 57 | 37 | 0.0 | 0.0 | 0.00 | 0.00 | 0.00 | 50 | 1017.1 |
| 20260502014147 | 56 | 37 | 0.0 | 0.0 | 0.00 | 0.00 | 0.00 | 50 | 1017.0 |
| 20260502013646 | 57 | 37 | 0.0 | 0.0 | 0.00 | 0.00 | 0.00 | 48 | 1017.0 |
| 20260502013145 | 57 | 37 | 0.0 | 0.0 | 0.00 | 0.00 | 0.00 | 50 | 1016.9 |
| 20260502012644 | 57 | 37 | 0.0 | 3.0 | 0.00 | 0.00 | 0.00 | 48 | 1016.8 |
| 20260502012143 | 58 | 329 | 0.0 | 2.0 | 0.00 | 0.00 | 0.00 | 49 | 1016.8 |
| 20260502011642 | 58 | 340 | 0.0 | 0.0 | 0.00 | 0.00 | 0.00 | 48 | 1016.7 |
| 20260502011141 | 58 | 340 | 0.0 | 2.0 | 0.00 | 0.00 | 0.00 | 47 | 1016.6 |
| 20260502010640 | 58 | 19 | 0.0 | 1.0 | 0.00 | 0.00 | 0.00 | 47 | 1016.5 |
| 20260502010139 | 58 | 19 | 0.0 | 1.0 | 0.00 | 0.00 | 0.00 | 46 | 1016.4 |
| 20260502005638 | 59 | 19 | 0.0 | 5.0 | 0.00 | 0.00 | 0.00 | 46 | 1016.4 |
| 20260502005137 | 59 | 330 | 0.0 | 8.0 | 0.00 | 0.00 | 0.00 | 46 | 1016.3 |
| 20260502004636 | 59 | 327 | 3.0 | 3.0 | 0.00 | 0.00 | 0.00 | 44 | 1016.2 |
| 20260502004135 | 59 | 1 | 3.0 | 5.0 | 0.00 | 0.00 | 0.00 | 44 | 1016.2 |
| 20260502003634 | 59 | 340 | 2.0 | 11.0 | 0.00 | 0.00 | 0.00 | 44 | 1016.1 |
| 20260502003133 | 59 | 310 | 0.0 | 4.0 | 0.00 | 0.00 | 0.00 | 43 | 1016.0 |
| 20260502002632 | 60 | 293 | 0.0 | 6.0 | 0.00 | 0.00 | 0.00 | 43 | 1016.0 |
| 20260502002131 | 60 | 324 | 2.0 | 7.0 | 0.00 | 0.00 | 0.00 | 43 | 1015.9 |
| 20260502001630 | 60 | 305 | 0.0 | 0.0 | 0.00 | 0.00 | 0.00 | 43 | 1015.9 |
| 20260502001129 | 60 | 344 | 2.0 | 6.0 | 0.00 | 0.00 | 0.00 | 42 | 1015.9 |
| 20260502000628 | 60 | 317 | 2.0 | 6.0 | 0.00 | 0.00 | 0.00 | 42 | 1015.9 |
| 20260502000127 | 61 | 1 | 0.0 | 9.0 | 0.00 | 0.00 | 0.00 | 42 | 1015.9 |
| 20260501235626 | 61 | 323 | 0.0 | 5.0 | 0.00 | 0.00 | 0.00 | 42 | 1015.9 |
| 20260501235125 | 61 | 330 | 3.0 | 6.0 | 0.00 | 0.00 | 0.00 | 43 | 1015.8 |
| 20260501234624 | 61 | 33 | 8.0 | 10.0 | 0.00 | 0.00 | 0.00 | 41 | 1015.9 |
| 20260501234123 | 61 | 298 | 0.0 | 6.0 | 0.00 | 0.00 | 0.00 | 41 | 1015.7 |
| 20260501233622 | 61 | 360 | 0.0 | 8.0 | 0.00 | 0.00 | 0.00 | 40 | 1015.8 |
| 20260501233121 | 61 | 315 | 0.0 | 6.0 | 0.00 | 0.00 | 0.00 | 39 | 1015.7 |
| 20260501232620 | 61 | 317 | 4.0 | 10.0 | 0.00 | 0.00 | 0.00 | 39 | 1015.7 |
| 20260501232119 | 62 | 316 | 3.0 | 3.0 | 0.00 | 0.00 | 0.00 | 39 | 1015.7 |
| 20260501231618 | 62 | 307 | 0.0 | 0.0 | 0.00 | 0.00 | 0.00 | 40 | 1015.7 |
| 20260501231117 | 62 | 307 | 0.0 | 8.0 | 0.00 | 0.00 | 0.00 | 40 | 1015.6 |
| 20260501230616 | 62 | 250 | 0.0 | 6.0 | 0.00 | 0.00 | 0.00 | 39 | 1015.7 |
| 20260501230115 | 62 | 333 | 1.0 | 5.0 | 0.00 | 0.00 | 0.00 | 38 | 1015.7 |
| 20260501225614 | 62 | 271 | 0.0 | 7.0 | 0.00 | 0.00 | 0.00 | 40 | 1015.7 |
| 20260501225113 | 62 | 298 | 0.0 | 4.0 | 0.00 | 0.00 | 0.00 | 38 | 1015.6 |
| 20260501224612 | 62 | 292 | 0.0 | 0.0 | 0.00 | 0.00 | 0.00 | 39 | 1015.7 |
| 20260501224111 | 62 | 292 | 0.0 | 0.0 | 0.00 | 0.00 | 0.00 | 38 | 1015.7 |
| 20260501223610 | 62 | 292 | 0.0 | 6.0 | 0.00 | 0.00 | 0.00 | 40 | 1015.8 |
| 20260501223109 | 62 | 307 | 0.0 | 8.0 | 0.00 | 0.00 | 0.00 | 38 | 1015.7 |
| 20260501222608 | 62 | 331 | 5.0 | 12.0 | 0.00 | 0.00 | 0.00 | 38 | 1015.8 |
| 20260501222107 | 62 | 331 | 4.0 | 7.0 | 0.00 | 0.00 | 0.00 | 39 | 1015.7 |
| 20260501221606 | 62 | 309 | 4.0 | 8.0 | 0.00 | 0.00 | 0.00 | 40 | 1015.7 |
| 20260501221105 | 62 | 303 | 2.0 | 9.0 | 0.00 | 0.00 | 0.00 | 38 | 1015.8 |
| 20260501220604 | 63 | 358 | 0.0 | 2.0 | 0.00 | 0.00 | 0.00 | 41 | 1015.8 |
| 20260501215602 | 64 | 303 | 0.0 | 9.0 | 0.00 | 0.00 | 0.00 | 38 | 1016.0 |
| 20260501215101 | 63 | 324 | 0.0 | 7.0 | 0.00 | 0.00 | 0.00 | 38 | 1016.0 |
| 20260501214600 | 62 | 326 | 0.0 | 10.0 | 0.00 | 0.00 | 0.00 | 41 | 1016.0 |
| 20260501214059 | 62 | 334 | 3.0 | 8.0 | 0.00 | 0.00 | 0.00 | 41 | 1016.0 |
| 20260501213558 | 62 | 277 | 0.0 | 6.0 | 0.00 | 0.00 | 0.00 | 40 | 1016.1 |
| 20260501213057 | 62 | 317 | 3.0 | 7.0 | 0.00 | 0.00 | 0.00 | 40 | 1016.3 |
| 20260501212556 | 62 | 312 | 0.0 | 8.0 | 0.00 | 0.00 | 0.00 | 43 | 1016.4 |
| 20260501212055 | 61 | 303 | 0.0 | 6.0 | 0.00 | 0.00 | 0.00 | 43 | 1016.4 |
| 20260501211554 | 61 | 248 | 3.0 | 8.0 | 0.00 | 0.00 | 0.00 | 41 | 1016.6 |
| 20260501211053 | 61 | 313 | 0.0 | 6.0 | 0.00 | 0.00 | 0.00 | 43 | 1016.6 |
| 20260501210552 | 61 | 299 | 0.0 | 8.0 | 0.00 | 0.00 | 0.00 | 42 | 1016.7 |
| 20260501210051 | 61 | 336 | 0.0 | 8.0 | 0.00 | 0.00 | 0.00 | 44 | 1016.6 |
| 20260501205550 | 61 | 288 | 0.0 | 9.0 | 0.00 | 0.00 | 0.00 | 45 | 1016.7 |
| 20260501205049 | 61 | 268 | 0.0 | 6.0 | 0.00 | 0.00 | 0.00 | 43 | 1016.8 |
| 20260501204548 | 61 | 358 | 1.0 | 6.0 | 0.00 | 0.00 | 0.00 | 42 | 1017.0 |
| 20260501204048 | 61 | 298 | 3.0 | 7.0 | 0.00 | 0.00 | 0.00 | 41 | 1016.9 |
| 20260501203546 | 61 | 317 | 2.0 | 8.0 | 0.00 | 0.00 | 0.00 | 40 | 1017.0 |
| 20260501203045 | 61 | 296 | 4.0 | 11.0 | 0.00 | 0.00 | 0.00 | 41 | 1017.1 |
| 20260501202544 | 61 | 351 | 0.0 | 9.0 | 0.00 | 0.00 | 0.00 | 41 | 1017.0 |
| 20260501202043 | 61 | 240 | 0.0 | 0.0 | 0.00 | 0.00 | 0.00 | 46 | 1017.2 |
| 20260501201542 | 61 | 240 | 0.0 | 0.0 | 0.00 | 0.00 | 0.00 | 44 | 1017.2 |
| 20260501201041 | 61 | 240 | 0.0 | 0.0 | 0.00 | 0.00 | 0.00 | 44 | 1017.2 |
| 20260501200540 | 62 | 240 | 0.0 | 0.0 | 0.00 | 0.00 | 0.00 | 44 | 1017.3 |
| 20260501200039 | 62 | 240 | 0.0 | 0.0 | 0.00 | 0.00 | 0.00 | 42 | 1017.4 |
| 20260501195538 | 62 | 240 | 0.0 | 6.0 | 0.00 | 0.00 | 0.00 | 41 | 1017.4 |
| 20260501195038 | 62 | 270 | 0.0 | 4.0 | 0.00 | 0.00 | 0.00 | 45 | 1017.4 |
| 20260501194536 | 62 | 298 | 0.0 | 8.0 | 0.00 | 0.00 | 0.00 | 42 | 1017.6 |
| 20260501194035 | 62 | 293 | 0.0 | 3.0 | 0.00 | 0.00 | 0.00 | 43 | 1017.6 |
| 20260501193534 | 62 | 315 | 0.0 | 5.0 | 0.00 | 0.00 | 0.00 | 41 | 1017.6 |
| 20260501193033 | 63 | 354 | 0.0 | 10.0 | 0.00 | 0.00 | 0.00 | 43 | 1017.7 |
| 20260501192532 | 64 | 268 | 0.0 | 7.0 | 0.00 | 0.00 | 0.00 | 42 | 1017.6 |
| 20260501192031 | 64 | 350 | 0.0 | 5.0 | 0.00 | 0.00 | 0.00 | 41 | 1017.7 |
| 20260501191530 | 64 | 264 | 0.0 | 12.0 | 0.00 | 0.00 | 0.00 | 38 | 1017.6 |
| 20260501191029 | 63 | 293 | 6.0 | 8.0 | 0.00 | 0.00 | 0.00 | 43 | 1017.6 |
| 20260501190528 | 63 | 262 | 0.0 | 5.0 | 0.00 | 0.00 | 0.00 | 41 | 1017.6 |
| 20260501190027 | 62 | 288 | 0.0 | 11.0 | 0.00 | 0.00 | 0.00 | 40 | 1017.7 |
| 20260501185526 | 62 | 262 | 0.0 | 2.0 | 0.00 | 0.00 | 0.00 | 40 | 1018.0 |
| 20260501185025 | 62 | 282 | 1.0 | 3.0 | 0.00 | 0.00 | 0.00 | 42 | 1018.0 |
| 20260501184524 | 62 | 302 | 3.0 | 4.0 | 0.00 | 0.00 | 0.00 | 43 | 1018.0 |
| 20260501184024 | 62 | 257 | 0.0 | 3.0 | 0.00 | 0.00 | 0.00 | 43 | 1018.0 |
| 20260501183522 | 62 | 232 | 4.0 | 6.0 | 0.00 | 0.00 | 0.00 | 42 | 1018.0 |
| 20260501183022 | 62 | 215 | 0.0 | 0.0 | 0.00 | 0.00 | 0.00 | 44 | 1018.1 |
| 20260501182520 | 62 | 215 | 0.0 | 4.0 | 0.00 | 0.00 | 0.00 | 42 | 1018.0 |
| 20260501182019 | 62 | 229 | 0.0 | 4.0 | 0.00 | 0.00 | 0.00 | 43 | 1018.1 |
| 20260501181518 | 62 | 343 | 0.0 | 4.0 | 0.00 | 0.00 | 0.00 | 44 | 1018.1 |
| 20260501181017 | 62 | 14 | 0.0 | 8.0 | 0.00 | 0.00 | 0.00 | 41 | 1018.1 |
| 20260501180516 | 62 | 288 | 0.0 | 4.0 | 0.00 | 0.00 | 0.00 | 43 | 1018.2 |
| 20260501180015 | 62 | 270 | 2.0 | 9.0 | 0.00 | 0.00 | 0.00 | 45 | 1018.1 |
| 20260501175514 | 62 | 305 | 0.0 | 0.0 | 0.00 | 0.00 | 0.00 | 40 | 1018.3 |
| 20260501175013 | 61 | 288 | 3.0 | 7.0 | 0.00 | 0.00 | 0.00 | 45 | 1018.4 |
| 20260501174512 | 61 | 285 | 0.0 | 2.0 | 0.00 | 0.00 | 0.00 | 44 | 1018.5 |
| 20260501174012 | 62 | 244 | 0.0 | 8.0 | 0.00 | 0.00 | 0.00 | 40 | 1018.4 |
| 20260501173510 | 62 | 202 | 0.0 | 0.0 | 0.00 | 0.00 | 0.00 | 43 | 1018.6 |
| 20260501173009 | 61 | 202 | 0.0 | 0.0 | 0.00 | 0.00 | 0.00 | 42 | 1018.6 |
| 20260501172508 | 61 | 202 | 1.0 | 5.0 | 0.00 | 0.00 | 0.00 | 45 | 1018.6 |
| 20260501172007 | 61 | 267 | 0.0 | 6.0 | 0.00 | 0.00 | 0.00 | 42 | 1018.6 |
| 20260501171506 | 61 | 340 | 0.0 | 6.0 | 0.00 | 0.00 | 0.00 | 45 | 1018.6 |
| 20260501171006 | 61 | 278 | 0.0 | 0.0 | 0.00 | 0.00 | 0.00 | 41 | 1018.6 |
| 20260501170504 | 61 | 278 | 0.0 | 2.0 | 0.00 | 0.00 | 0.00 | 43 | 1018.7 |
| 20260501170004 | 61 | 196 | 0.0 | 0.0 | 0.00 | 0.00 | 0.00 | 41 | 1018.7 |
| 20260501165502 | 61 | 199 | 1.0 | 3.0 | 0.00 | 0.00 | 0.00 | 41 | 1018.7 |
| 20260501165001 | 61 | 208 | 0.0 | 4.0 | 0.00 | 0.00 | 0.00 | 43 | 1018.7 |
| 20260501164500 | 61 | 254 | 0.0 | 0.0 | 0.00 | 0.00 | 0.00 | 47 | 1018.7 |
| 20260501163959 | 60 | 254 | 0.0 | 0.0 | 0.00 | 0.00 | 0.00 | 42 | 1018.7 |
| 20260501163458 | 60 | 254 | 0.0 | 4.0 | 0.00 | 0.00 | 0.00 | 39 | 1018.7 |
| 20260501162957 | 60 | 220 | 0.0 | 2.0 | 0.00 | 0.00 | 0.00 | 42 | 1018.6 |
| 20260501162456 | 60 | 191 | 0.0 | 2.0 | 0.00 | 0.00 | 0.00 | 42 | 1018.7 |